DW4238 Weather Reports


Display with metric or nautical units.
time (UTC)temp
F
wind
direction
speed
MPH
gust
MPH
rain 1hr
in
rain 24hr
in
rain mn
in
humidity
%
barometer
mb
20230130053758 41 360 7.0 18.0 0.00 0.34 0.34 100 1019.7
20230130053254 41 337 11.0 18.0 0.00 0.34 0.34 100 1019.6
20230130052746 42 337 9.0 18.0 0.00 0.34 0.34 100 1019.8
20230130052232 42 324 11.0 18.0 0.00 0.34 0.34 100 1019.6
20230130051711 42 317 12.0 19.0 0.00 0.34 0.34 100 1019.5
20230130051249 42 327 12.0 16.0 0.00 0.34 0.34 100 1019.5
20230130050721 42 342 9.0 18.0 0.00 0.34 0.34 100 1019.4
20230130050253 42 326 10.0 18.0 0.00 0.34 0.34 100 1019.5
20230130045738 42 339 9.0 16.0 0.00 0.34 0.34 100 1019.5
20230130045233 42 348 10.0 17.0 0.00 0.34 0.34 100 1019.5
20230130044800 42 338 11.0 17.0 0.00 0.34 0.34 100 1019.6
20230130044254 42 329 8.0 15.0 0.00 0.34 0.34 100 1019.5
20230130043740 42 344 5.0 15.0 0.00 0.34 0.34 100 1019.6
20230130043235 42 348 11.0 15.0 0.00 0.34 0.34 100 1019.6
20230130042801 42 338 8.0 14.0 0.00 0.34 0.34 100 1019.6
20230130042239 42 323 8.0 16.0 0.00 0.34 0.34 100 1019.5
20230130041746 42 355 9.0 16.0 0.00 0.34 0.34 100 1019.4
20230130041239 42 360 10.0 13.0 0.00 0.34 0.34 100 1019.5
20230130040724 42 349 9.0 15.0 0.00 0.34 0.34 100 1019.8
20230130040300 42 355 10.0 15.0 0.00 0.34 0.34 100 1019.7
20230130035825 42 317 8.0 15.0 0.00 0.34 0.34 100 1019.6
20230130035257 42 331 11.0 19.0 0.00 0.34 0.34 100 1019.7
20230130034744 42 5 12.0 18.0 0.00 0.34 0.34 100 1019.5
20230130034238 42 341 12.0 17.0 0.00 0.34 0.34 100 1019.4
20230130033813 42 346 10.0 19.0 0.00 0.34 0.34 100 1019.4
20230130033244 42 355 12.0 19.0 0.00 0.34 0.34 100 1019.2
20230130032718 42 355 9.0 20.0 0.00 0.34 0.34 100 1019.3
20230130032246 42 355 11.0 20.0 0.00 0.34 0.34 100 1019.3
20230130031720 43 337 11.0 16.0 0.00 0.34 0.34 100 1019.3
20230130031306 43 331 9.0 14.0 0.00 0.34 0.34 100 1019.3
20230130030759 43 16 9.0 19.0 0.00 0.34 0.34 100 1019.3
20230130030246 43 340 10.0 16.0 0.00 0.34 0.34 100 1019.0
20230130025819 43 355 10.0 18.0 0.00 0.34 0.34 100 1019.0
20230130025252 43 349 9.0 21.0 0.00 0.34 0.34 100 1018.9
20230130024739 43 346 11.0 21.0 0.00 0.34 0.34 100 1018.9
20230130024233 43 355 13.0 17.0 0.00 0.34 0.34 100 1018.9
20230130023805 43 339 10.0 18.0 0.00 0.34 0.34 100 1018.8
20230130023236 43 325 11.0 18.0 0.00 0.34 0.34 100 1018.6
20230130022803 43 315 11.0 17.0 0.00 0.34 0.34 100 1018.5
20230130022236 44 337 11.0 19.0 0.00 0.34 0.34 100 1018.4
20230130021803 44 333 13.0 19.0 0.00 0.34 0.34 100 1018.4
20230130021251 44 360 9.0 16.0 0.00 0.34 0.34 100 1018.4
20230130020738 45 321 8.0 21.0 0.00 0.34 0.34 100 1018.3
20230130020233 45 341 10.0 21.0 0.00 0.34 0.34 100 1018.2
20230130015806 45 334 13.0 19.0 0.00 0.35 0.34 100 1018.1
20230130015253 46 349 12.0 19.0 0.00 0.35 0.34 100 1017.9
20230130014731 46 342 9.0 19.0 0.00 0.35 0.34 100 1017.8
20230130014315 46 321 13.0 19.0 0.00 0.35 0.34 100 1017.7
20230130013722 46 338 12.0 18.0 0.00 0.35 0.34 100 1017.6
20230130013256 47 325 12.0 19.0 0.00 0.35 0.34 100 1017.5
20230130012741 47 9 13.0 20.0 0.00 0.35 0.34 100 1017.5
20230130012235 47 355 13.0 20.0 0.00 0.35 0.34 100 1017.3
20230130011729 47 336 12.0 20.0 0.00 0.35 0.34 100 1017.2
20230130011217 48 312 10.0 18.0 0.00 0.35 0.34 100 1017.2
20230130010711 48 323 12.0 19.0 0.00 0.35 0.34 100 1017.1
20230130010307 49 345 10.0 19.0 0.00 0.35 0.34 100 1017.1
20230130005732 49 355 9.0 19.0 0.00 0.35 0.34 100 1017.0
20230130005259 49 355 11.0 21.0 0.00 0.35 0.34 100 1016.9
20230130004754 50 350 10.0 20.0 0.00 0.35 0.34 100 1016.9
20230130004238 51 346 11.0 20.0 0.00 0.35 0.34 100 1016.6
20230130003731 51 329 14.0 20.0 0.00 0.35 0.34 100 1016.6
20230130003219 52 331 11.0 19.0 0.00 0.35 0.34 100 1016.5
20230130002712 52 327 11.0 17.0 0.00 0.35 0.34 100 1016.5
20230130002306 52 342 7.0 15.0 0.00 0.35 0.34 100 1016.4
20230130001752 53 331 9.0 16.0 0.00 0.35 0.34 100 1016.1
20230130001223 53 338 10.0 16.0 0.00 0.35 0.34 100 1016.0
20230130000814 53 355 9.0 13.0 0.00 0.35 0.34 100 1016.0
20230130000225 54 334 6.0 18.0 0.00 0.35 0.34 100 1015.9
20230129235757 54 328 9.0 18.0 0.00 0.35 0.34 100 1015.8
20230129235245 54 327 11.0 18.0 0.00 0.35 0.34 100 1015.6
20230129234738 55 349 10.0 18.0 0.00 0.35 0.34 100 1015.4
20230129234232 56 334 11.0 17.0 0.00 0.35 0.34 100 1015.3
20230129233759 56 340 7.0 17.0 0.00 0.35 0.34 100 1015.1
20230129233233 57 355 10.0 21.0 0.00 0.35 0.34 100 1015.1
20230129232719 57 360 12.0 21.0 0.00 0.35 0.34 100 1015.0
20230129232314 57 326 13.0 19.0 0.00 0.35 0.34 100 1014.9
20230129231723 58 344 12.0 17.0 0.00 0.35 0.34 100 1014.8
20230129231251 59 355 12.0 17.0 0.00 0.35 0.34 100 1014.7
20230129230746 60 351 10.0 17.0 0.00 0.35 0.34 100 1014.6
20230129230219 61 318 11.0 16.0 0.00 0.35 0.34 100 1014.5
20230129225806 61 337 11.0 15.0 0.00 0.35 0.34 99 1014.4
20230129225238 62 333 8.0 15.0 0.00 0.35 0.34 99 1014.2
20230129224731 64 351 10.0 15.0 0.00 0.35 0.34 98 1014.1
20230129224249 65 348 7.0 11.0 0.00 0.35 0.34 99 1013.9
20230129223742 65 34 5.0 11.0 0.00 0.35 0.34 99 1013.7
20230129223229 65 14 6.0 12.0 0.00 0.35 0.34 99 1013.7
20230129222802 65 9 5.0 11.0 0.00 0.35 0.34 99 1013.7
20230129222232 65 28 6.0 14.0 0.00 0.35 0.34 100 1013.7
20230129221800 65 5 8.0 14.0 0.00 0.35 0.34 100 1013.5
20230129221252 65 27 7.0 13.0 0.00 0.35 0.34 100 1013.4
20230129220724 65 40 5.0 12.0 0.00 0.35 0.34 100 1013.4
20230129220251 65 5 5.0 9.0 0.00 0.35 0.34 100 1013.2
20230129215743 65 34 3.0 12.0 0.00 0.38 0.34 100 1013.1
20230129215216 65 325 5.0 13.0 0.00 0.38 0.34 100 1013.0
20230129214711 65 11 6.0 13.0 0.00 0.38 0.34 100 1012.9
20230129214306 65 360 5.0 13.0 0.00 0.38 0.34 100 1012.8
20230129213732 66 12 9.0 13.0 0.00 0.38 0.34 100 1012.7
20230129213305 66 22 6.0 13.0 0.00 0.38 0.34 100 1012.9
20230129212714 66 337 8.0 13.0 0.00 0.38 0.34 100 1012.8
20230129212306 66 47 5.0 13.0 0.00 0.38 0.34 100 1012.9
20230129211714 67 346 7.0 14.0 0.00 0.38 0.34 100 1012.9
20230129211242 67 43 9.0 17.0 0.00 0.38 0.34 100 1012.9
20230129210735 67 350 9.0 17.0 0.00 0.38 0.34 100 1012.9
20230129210221 68 360 7.0 16.0 0.00 0.38 0.34 100 1012.8
20230129205712 68 9 9.0 15.0 0.00 0.40 0.34 100 1012.8
20230129205307 68 342 8.0 13.0 0.00 0.40 0.34 100 1013.0
20230129204817 69 351 7.0 18.0 0.00 0.40 0.34 100 1012.9
20230129204241 69 321 9.0 18.0 0.00 0.40 0.34 100 1012.9
20230129203712 69 341 6.0 15.0 0.00 0.40 0.34 100 1012.8
20230129203308 69 360 8.0 13.0 0.00 0.40 0.34 100 1012.7
20230129202806 69 347 9.0 13.0 0.00 0.40 0.34 100 1012.7
20230129202234 69 360 7.0 12.0 0.00 0.40 0.34 100 1012.7
20230129201759 69 30 7.0 12.0 0.00 0.40 0.34 100 1012.6
20230129201232 70 5 7.0 12.0 0.01 0.40 0.34 100 1012.6
20230129200758 70 355 6.0 11.0 0.02 0.40 0.34 100 1012.7
20230129200253 70 342 5.0 11.0 0.02 0.40 0.34 100 1012.7
20230129195723 70 332 5.0 12.0 0.03 0.40 0.34 100 1012.7
20230129195250 70 319 6.0 12.0 0.03 0.40 0.34 100 1012.6
20230129194744 70 355 6.0 13.0 0.03 0.40 0.34 100 1012.5
20230129194239 70 318 8.0 15.0 0.03 0.40 0.34 100 1012.5
20230129193725 71 319 5.0 11.0 0.03 0.40 0.34 100 1012.5
20230129193259 70 355 7.0 11.0 0.03 0.40 0.34 100 1012.7
20230129192745 70 329 7.0 14.0 0.03 0.40 0.34 100 1012.8
20230129192240 70 321 8.0 15.0 0.03 0.40 0.34 100 1013.0
20230129191756 70 287 10.0 15.0 0.03 0.40 0.34 100 1013.0
20230129191222 71 298 8.0 15.0 0.02 0.39 0.33 100 1013.1
20230129190816 71 298 8.0 15.0 0.01 0.38 0.32 100 1013.0
20230129190242 72 337 9.0 13.0 0.01 0.38 0.32 100 1013.0
20230129185719 72 283 8.0 13.0 0.00 0.38 0.31 100 1013.1
20230129185247 72 295 6.0 12.0 0.00 0.38 0.31 100 1013.0
20230129184740 72 325 8.0 12.0 0.00 0.38 0.31 100 1013.1
20230129184227 72 321 6.0 12.0 0.00 0.38 0.31 100 1013.2
20230129183801 72 314 8.0 12.0 0.00 0.38 0.31 100 1013.4
20230129183248 72 317 9.0 11.0 0.00 0.38 0.31 100 1013.5
20230129182741 72 292 5.0 10.0 0.00 0.38 0.31 100 1013.7
20230129182211 72 311 6.0 10.0 0.00 0.38 0.31 100 1013.6
20230129181802 72 309 7.0 10.0 0.00 0.38 0.31 100 1013.7
20230129181212 73 296 7.0 10.0 0.00 0.38 0.31 100 1013.8
20230129180719 73 299 7.0 12.0 0.00 0.38 0.31 100 1014.0
20230129180254 73 304 8.0 12.0 0.00 0.38 0.31 100 1014.1
20230129175739 73 265 6.0 11.0 0.00 0.39 0.31 100 1014.0
20230129175233 73 286 8.0 14.0 0.00 0.39 0.31 100 1014.2
20230129174739 73 249 10.0 14.0 0.00 0.39 0.31 100 1014.2
20230129174234 73 259 6.0 10.0 0.00 0.39 0.31 100 1014.3
20230129173801 73 247 5.0 9.0 0.00 0.39 0.31 100 1014.3
20230129173233 72 267 5.0 8.0 0.01 0.39 0.31 100 1014.4
20230129172800 72 219 3.0 5.0 0.01 0.39 0.31 100 1014.5
20230129172251 72 238 3.0 7.0 0.01 0.39 0.31 100 1014.7
20230129171721 71 230 5.0 7.0 0.01 0.39 0.31 100 1014.8
20230129171247 71 235 5.0 7.0 0.01 0.39 0.31 100 1014.8
20230129170823 71 200 3.0 6.0 0.01 0.39 0.31 100 1014.9
20230129170249 71 188 3.0 5.0 0.01 0.39 0.31 100 1014.9
20230129165742 70 212 2.0 5.0 0.01 0.39 0.31 100 1015.0
20230129165229 69 180 3.0 5.0 0.01 0.39 0.31 100 1015.1
20230129164724 69 180 3.0 7.0 0.01 0.39 0.31 100 1015.3
20230129164217 69 185 4.0 9.0 0.03 0.39 0.31 100 1015.5
20230129163805 69 160 7.0 9.0 0.05 0.39 0.31 100 1015.4
20230129163243 69 159 5.0 7.0 0.04 0.38 0.30 100 1015.4
20230129162728 68 178 3.0 7.0 0.05 0.38 0.30 100 1015.3
20230129162305 68 178 4.0 7.0 0.05 0.38 0.30 100 1015.4
20230129161728 68 202 4.0 5.0 0.05 0.38 0.30 100 1015.2
20230129160756 68 181 2.0 6.0 0.05 0.38 0.30 100 1015.3
20230129160251 67 181 3.0 6.0 0.05 0.38 0.30 100 1015.3
20230129155736 67 161 5.0 6.0 0.05 0.39 0.30 100 1015.3
20230129155215 67 173 3.0 8.0 0.05 0.39 0.30 100 1015.2
20230129154739 67 175 4.0 8.0 0.05 0.39 0.30 100 1015.0
20230129154222 67 169 3.0 5.0 0.03 0.37 0.28 100 1015.0
20230129153333 67 215 1.0 3.0 0.01 0.35 0.26 100 1014.9
20230129152733 66 215 0.0 1.0 0.00 0.34 0.25 100 1014.9
20230129152220 66 223 0.0 1.0 0.00 0.34 0.25 100 1014.8
20230129151714 66 223 0.0 2.0 0.00 0.34 0.25 100 1014.7
20230129151308 66 223 0.0 3.0 0.00 0.34 0.25 100 1014.6
20230129150733 66 223 2.0 3.0 0.00 0.34 0.25 100 1014.6
20230129150226 66 223 2.0 4.0 0.00 0.34 0.25 100 1014.5
20230129145711 66 194 3.0 5.0 0.00 0.34 0.25 100 1014.5
20230129145306 66 194 3.0 6.0 0.00 0.34 0.25 100 1014.5
20230129144727 66 193 4.0 6.0 0.00 0.34 0.25 100 1014.3
20230129144248 66 183 4.0 6.0 0.00 0.34 0.25 100 1014.3
20230129143801 66 178 3.0 5.0 0.00 0.34 0.25 100 1014.3
20230129143249 66 189 4.0 5.0 0.00 0.34 0.25 100 1014.3
20230129142721 66 174 3.0 5.0 0.00 0.34 0.25 100 1014.2
20230129142309 66 177 3.0 6.0 0.01 0.34 0.25 100 1014.2
20230129141750 66 171 5.0 7.0 0.01 0.34 0.25 100 1014.0
20230129141214 66 167 5.0 6.0 0.01 0.34 0.25 100 1014.0
20230129140810 66 180 5.0 8.0 0.05 0.34 0.25 100 1014.1
20230129140237 66 200 6.0 9.0 0.18 0.34 0.25 100 1014.2
20230129135808 67 202 6.0 9.0 0.22 0.34 0.25 100 1014.1
20230129135234 67 192 5.0 10.0 0.24 0.34 0.25 100 1014.0
20230129134710 67 217 7.0 10.0 0.25 0.34 0.25 100 1013.9
20230129134253 67 196 8.0 11.0 0.25 0.34 0.25 100 1013.8
20230129133710 68 178 8.0 13.0 0.25 0.34 0.25 100 1013.9
20230129133238 68 192 10.0 13.0 0.25 0.34 0.25 100 1013.7
20230129132804 69 205 9.0 17.0 0.24 0.33 0.24 100 1013.7
20230129132256 69 189 9.0 20.0 0.24 0.33 0.24 100 1013.6
20230129131822 69 195 12.0 21.0 0.24 0.33 0.24 100 1013.6
20230129131253 69 205 13.0 23.0 0.24 0.33 0.24 100 1013.4
20230129130741 69 191 13.0 23.0 0.19 0.28 0.19 100 1013.1
20230129130214 69 221 6.0 10.0 0.06 0.15 0.06 100 1013.4
20230129125759 70 231 7.0 10.0 0.03 0.14 0.03 100 1013.2
20230129125252 70 214 7.0 10.0 0.01 0.12 0.01 100 1013.2
20230129124745 70 193 5.0 10.0 0.00 0.11 0.00 100 1013.2
20230129124302 70 199 3.0 6.0 0.00 0.11 0.00 100 1013.3
20230129123755 70 197 3.0 6.0 0.00 0.11 0.00 100 1013.1
20230129123227 70 193 4.0 6.0 0.00 0.11 0.00 100 1013.2
20230129122753 70 186 3.0 6.0 0.00 0.11 0.00 100 1013.2
20230129122246 70 126 3.0 6.0 0.00 0.11 0.00 100 1013.5
20230129121740 70 188 2.0 6.0 0.00 0.11 0.00 100 1013.7
20230129121228 70 221 3.0 7.0 0.00 0.11 0.00 100 1013.9
20230129120803 70 188 4.0 7.0 0.00 0.11 0.00 100 1014.0
20230129120250 70 215 5.0 6.0 0.00 0.11 0.00 100 1013.9
20230129115722 70 240 4.0 10.0 0.00 0.13 0.00 100 1013.8
20230129115310 70 168 5.0 10.0 0.00 0.13 0.00 100 1013.6
20230129114725 70 212 3.0 5.0 0.00 0.13 0.00 100 1013.5
20230129114230 70 186 1.0 3.0 0.00 0.13 0.00 100 1013.4
20230129113758 70 188 2.0 3.0 0.00 0.13 0.00 100 1013.4
20230129113250 70 194 2.0 4.0 0.00 0.13 0.00 100 1013.5
20230129112735 70 192 3.0 7.0 0.00 0.13 0.00 100 1013.5
20230129112230 70 179 3.0 8.0 0.00 0.13 0.00 100 1013.4
20230129111825 70 158 4.0 8.0 0.00 0.13 0.00 100 1013.3
20230129111251 69 178 4.0 8.0 0.00 0.13 0.00 100 1013.5
20230129110724 69 185 4.0 9.0 0.00 0.13 0.00 100 1013.7
20230129110218 69 181 6.0 9.0 0.00 0.13 0.00 100 1013.7
20230129105739 69 181 6.0 9.0 0.00 0.14 0.00 100 1013.6
20230129105232 69 186 5.0 10.0 0.00 0.14 0.00 100 1013.6
20230129104800 69 190 7.0 14.0 0.00 0.14 0.00 100 1013.4
20230129104231 69 190 8.0 16.0 0.00 0.14 0.00 100 1013.2
20230129103805 69 191 10.0 16.0 0.00 0.14 0.00 100 1013.2
20230129103251 69 184 10.0 16.0 0.00 0.14 0.00 100 1013.1
20230129102740 69 182 13.0 16.0 0.00 0.14 0.00 100 1013.1
20230129102235 69 154 10.0 21.0 0.00 0.14 0.00 100 1013.1
20230129101801 69 175 12.0 21.0 0.00 0.14 0.00 100 1013.2
20230129101247 69 156 11.0 18.0 0.00 0.14 0.00 100 1013.3
20230129100741 70 167 10.0 18.0 0.00 0.14 0.00 100 1013.4
20230129100213 70 175 10.0 17.0 0.00 0.14 0.00 100 1013.5
20230129095746 70 163 10.0 17.0 0.00 0.14 0.00 100 1013.5
20230129095231 70 170 12.0 19.0 0.00 0.14 0.00 100 1013.4
20230129094726 70 171 12.0 17.0 0.00 0.14 0.00 100 1013.4
20230129094300 69 175 12.0 20.0 0.00 0.14 0.00 100 1013.4
20230129093747 69 151 12.0 18.0 0.00 0.14 0.00 100 1013.3
20230129093240 69 150 11.0 19.0 0.00 0.14 0.00 100 1013.3
20230129092726 69 178 13.0 19.0 0.00 0.14 0.00 100 1013.4
20230129092240 69 165 11.0 21.0 0.00 0.14 0.00 100 1013.5
20230129091728 69 182 14.0 20.0 0.00 0.14 0.00 100 1013.5
20230129091302 69 194 12.0 17.0 0.00 0.14 0.00 100 1013.5
20230129090731 69 192 12.0 17.0 0.00 0.14 0.00 100 1013.5
20230129090255 69 186 11.0 16.0 0.00 0.14 0.00 100 1013.5
20230129085748 69 190 11.0 17.0 0.00 0.14 0.00 100 1013.6
20230129085236 69 182 10.0 17.0 0.00 0.14 0.00 100 1013.7
20230129084809 69 186 10.0 15.0 0.00 0.14 0.00 100 1013.8
20230129084240 69 180 9.0 18.0 0.00 0.14 0.00 100 1013.8
20230129083728 69 175 11.0 20.0 0.00 0.14 0.00 100 1013.6
20230129083300 69 184 13.0 20.0 0.00 0.14 0.00 100 1013.5
20230129082746 69 178 14.0 16.0 0.00 0.14 0.00 100 1013.8
20230129082224 69 175 12.0 18.0 0.00 0.14 0.00 100 1014.0
20230129081751 69 168 11.0 18.0 0.00 0.14 0.00 100 1014.0
20230129081245 69 173 11.0 18.0 0.00 0.14 0.00 100 1014.0
20230129080732 69 169 12.0 18.0 0.00 0.14 0.00 100 1014.0
20230129080223 69 175 10.0 17.0 0.00 0.14 0.00 100 1014.2
20230129075728 69 173 9.0 17.0 0.00 0.14 0.00 100 1014.2
20230129075227 69 160 9.0 12.0 0.00 0.14 0.00 100 1014.4
20230129074732 69 187 9.0 14.0 0.00 0.14 0.00 100 1014.6
20230129074230 69 173 9.0 14.0 0.00 0.14 0.00 100 1014.7
20230129073735 69 195 8.0 16.0 0.00 0.14 0.00 100 1014.7
20230129073213 69 191 8.0 16.0 0.00 0.14 0.00 100 1014.7
20230129072717 69 190 9.0 16.0 0.00 0.14 0.00 100 1014.7
20230129072217 69 180 10.0 16.0 0.00 0.14 0.00 100 1014.6
20230129071721 68 165 9.0 13.0 0.00 0.14 0.00 100 1014.6
20230129071221 68 180 10.0 17.0 0.00 0.14 0.00 100 1014.5
20230129070727 68 177 8.0 17.0 0.00 0.14 0.00 100 1014.6
20230129070226 68 163 11.0 14.0 0.00 0.14 0.00 100 1014.4
20230129065731 68 180 9.0 15.0 0.00 0.14 0.00 100 1014.6
20230129065210 68 178 11.0 15.0 0.00 0.14 0.00 100 1014.6
20230129064729 68 180 9.0 14.0 0.00 0.14 0.00 100 1014.9
20230129064236 68 185 8.0 16.0 0.00 0.14 0.00 100 1014.9
20230129063713 68 197 11.0 16.0 0.00 0.14 0.00 100 1014.9
20230129063213 68 170 9.0 15.0 0.00 0.14 0.00 100 1014.7
20230129062717 68 197 11.0 16.0 0.00 0.14 0.00 100 1014.7
20230129062216 68 152 12.0 16.0 0.00 0.14 0.00 100 1014.8
20230129061721 68 154 11.0 16.0 0.00 0.14 0.00 100 1014.9
20230129061220 68 171 9.0 17.0 0.00 0.14 0.00 100 1014.9
20230129060727 68 146 12.0 17.0 0.00 0.14 0.00 100 1015.1
20230129060245 68 166 10.0 14.0 0.00 0.14 0.00 100 1015.2
20230129055742 68 157 10.0 14.0 0.00 0.14 0.14 100 1015.2
20230129055236 68 180 10.0 14.0 0.00 0.14 0.14 100 1015.4
20230129054804 68 168 9.0 13.0 0.00 0.14 0.14 100 1015.5
20230129054257 68 159 8.0 15.0 0.00 0.14 0.14 100 1015.7